Date String (YYYY-MM-DD hh:mm:ss) UTC,Instrument flags,Ambient pressure (hPa),Sample flow (lpm),Bypass flow (lpm),Sample temperature (°C),Ambient temperature (°C),ASC tube jacket temperature (°C),LED temperature (°C),Box temperature (°C),Sample RH (%),Span deviation,Mass concentration (μg/m³),Mass concentration (μg/m³),Mass concentration (μg/m³)
DateTimeUTC,F1_M11,P_M11,Q1_M11,Q2_M11,T1_M11,T2_M11,T3_M11,T4_M11,T5_M11,U1_M11,ZSPAN_M11,X0_M11,X2_M11,X1_M11
2022-03-27 11:00:00,,0824.1,5.00,0.00,27.5,26.3,00.0,36.6,29.3,12.7,0000.0,0014.67,0004.92,0003.78
2022-03-27 11:01:00,,0824.1,5.00,0.00,27.5,26.3,00.0,36.5,29.3,12.7,0000.0,0015.04,0004.96,0003.79
2022-03-27 11:02:00,,0824.2,5.00,0.00,27.5,26.3,00.0,36.5,29.3,12.6,0000.0,0015.09,0004.96,0003.80
2022-03-27 11:03:00,,0824.2,5.00,0.00,27.5,26.3,00.0,36.5,29.3,12.6,0000.0,0015.22,0004.99,0003.81
2022-03-27 11:04:00,,0824.1,5.00,0.00,27.5,26.3,00.0,36.5,29.2,12.6,0000.0,0014.68,0004.94,0003.82
2022-03-27 11:05:00,,0824.1,5.00,0.00,27.5,26.3,00.0,36.5,29.2,12.6,0000.0,0014.08,0004.99,0003.84
2022-03-27 11:06:00,,0824.1,4.99,0.00,27.5,26.3,00.0,36.5,29.2,12.5,0000.0,0014.15,0004.99,0003.86
2022-03-27 11:07:00,,0824.1,4.99,0.00,27.5,26.3,00.0,36.5,29.2,12.5,0000.0,0014.63,0004.99,0003.88
2022-03-27 11:08:00,,0824.1,4.99,0.00,27.5,26.3,00.0,36.5,29.2,12.5,0000.0,0012.99,0005.01,0003.90
2022-03-27 11:09:00,,0824.1,5.00,0.00,27.5,26.3,00.0,36.5,29.2,12.5,0000.0,0012.50,0005.00,0003.92
2022-03-27 11:10:00,,0824.1,5.00,0.00,27.4,26.3,00.0,36.5,29.2,12.5,0000.0,0012.00,0004.94,0003.93
2022-03-27 11:11:00,,0824.2,5.01,0.00,27.4,26.3,00.0,36.5,29.2,12.5,0000.0,0011.76,0004.92,0003.95
2022-03-27 11:12:00,,0824.3,5.01,0.00,27.4,26.3,00.0,36.4,29.2,12.5,0000.0,0011.34,0004.94,0003.96
2022-03-27 11:13:00,,0824.3,5.00,0.00,27.4,26.3,00.0,36.4,29.2,12.5,0000.0,0011.57,0004.96,0003.97
2022-03-27 11:14:00,,0824.2,5.01,0.00,27.4,26.3,00.0,36.4,29.2,12.5,0000.0,0011.64,0004.95,0003.96
2022-03-27 11:15:00,,0824.2,5.00,0.00,27.4,26.3,00.0,36.4,29.2,12.5,0000.0,0011.37,0004.97,0003.96
2022-03-27 11:16:00,,0824.2,5.01,0.00,27.4,26.3,00.0,36.4,29.2,12.5,0000.0,0011.43,0004.95,0003.96
2022-03-27 11:17:00,,0824.2,5.00,0.00,27.4,26.3,00.0,36.4,29.2,12.5,0000.0,0012.16,0004.95,0003.96
2022-03-27 11:18:00,,0824.2,5.00,0.00,27.4,26.3,00.0,36.4,29.2,12.5,0000.0,0012.40,0004.95,0003.95
2022-03-27 11:19:00,,0824.2,4.99,0.00,27.4,26.3,00.0,36.4,29.2,12.5,0000.0,0013.38,0004.98,0003.95
2022-03-27 11:20:00,,0824.2,5.01,0.00,27.4,26.3,00.0,36.4,29.2,12.4,0000.0,0013.70,0005.00,0003.96
2022-03-27 11:21:00,,0824.2,5.00,0.00,27.4,26.3,00.0,36.4,29.2,12.5,0000.0,0013.67,0005.01,0003.97
2022-03-27 11:22:00,,0824.3,5.00,0.00,27.4,26.2,00.0,36.4,29.2,12.5,0000.0,0013.90,0005.04,0003.97
2022-03-27 11:23:00,,0824.3,5.02,0.00,27.4,26.2,00.0,36.4,29.2,12.5,0000.0,0013.76,0005.02,0003.97
2022-03-27 11:24:00,,0824.3,5.00,0.00,27.4,26.2,00.0,36.4,29.2,12.5,0000.0,0013.06,0005.00,0003.97
2022-03-27 11:25:00,,0824.3,5.01,0.00,27.4,26.3,00.0,36.4,29.2,12.5,0000.0,0012.82,0004.97,0003.99
2022-03-27 11:26:00,,0824.3,5.00,0.00,27.4,26.2,00.0,36.4,29.2,12.4,0000.0,0012.88,0004.92,0003.99
2022-03-27 11:27:00,,0824.3,4.99,0.00,27.4,26.3,00.0,36.4,29.1,12.4,0000.0,0013.75,0004.91,0003.99
2022-03-27 11:28:00,,0824.3,4.99,0.00,27.4,26.3,00.0,36.3,29.1,12.4,0000.0,0013.43,0004.97,0004.00
2022-03-27 11:29:00,,0824.3,5.00,0.00,27.3,26.2,00.0,36.3,29.1,12.5,0000.0,0012.55,0004.99,0004.01
2022-03-27 11:30:00,,0824.3,4.99,0.00,27.3,26.2,00.0,36.3,29.1,12.5,0000.0,0011.94,0004.99,0004.02
2022-03-27 11:31:00,,0824.3,5.00,0.00,27.3,26.2,00.0,36.3,29.1,12.5,0000.0,0011.55,0004.95,0004.03
2022-03-27 11:32:00,,0824.4,5.00,0.00,27.3,26.2,00.0,36.3,29.1,12.5,0000.0,0012.21,0004.96,0004.03
2022-03-27 11:33:00,,0824.3,5.01,0.00,27.3,26.1,00.0,36.3,29.1,12.5,0000.0,0012.83,0004.99,0004.04
2022-03-27 11:34:00,,0824.3,5.00,0.00,27.3,26.1,00.0,36.3,29.0,12.5,0000.0,0013.31,0005.01,0004.04
2022-03-27 11:35:00,,0824.4,5.01,0.00,27.3,26.1,00.0,36.3,29.0,12.5,0000.0,0014.49,0005.01,0004.04
2022-03-27 11:36:00,,0824.4,4.99,0.00,27.3,26.0,00.0,36.3,29.0,12.5,0000.0,0014.83,0005.03,0004.04
2022-03-27 11:37:00,,0824.4,4.99,0.00,27.2,26.0,00.0,36.3,29.0,12.5,0000.0,0015.94,0005.09,0004.06
2022-03-27 11:38:00,,0824.4,5.00,0.00,27.2,26.0,00.0,36.3,29.0,12.5,0000.0,0015.25,0005.06,0004.07
2022-03-27 11:39:00,,0824.4,4.99,0.00,27.2,25.9,00.0,36.2,28.9,12.6,0000.0,0015.09,0005.00,0004.06
2022-03-27 11:40:00,,0824.4,5.02,0.00,27.2,25.9,00.0,36.2,28.9,12.6,0000.0,0015.48,0005.03,0004.08
2022-03-27 11:41:00,,0824.4,5.00,0.00,27.1,25.9,00.0,36.2,28.8,12.6,0000.0,0015.12,0005.01,0004.09
2022-03-27 11:42:00,,0824.4,4.99,0.00,27.1,25.9,00.0,36.2,28.9,12.7,0000.0,0015.84,0005.02,0004.08
2022-03-27 11:43:00,,0824.4,5.00,0.00,27.1,25.9,00.0,36.2,28.8,12.7,0000.0,0016.35,0005.03,0004.07
2022-03-27 11:44:00,,0824.3,4.99,0.00,27.1,25.8,00.0,36.2,28.8,12.6,0000.0,0015.54,0004.99,0004.09
2022-03-27 11:45:00,,0824.3,5.00,0.00,27.1,25.9,00.0,36.2,28.8,12.6,0000.0,0015.05,0004.97,0004.11
2022-03-27 11:46:00,,0824.3,5.00,0.00,27.1,25.8,00.0,36.2,28.8,12.7,0000.0,0014.29,0004.97,0004.11
2022-03-27 11:47:00,,0824.3,5.01,0.00,27.1,25.8,00.0,36.1,28.8,12.6,0000.0,0014.28,0004.99,0004.11
2022-03-27 11:48:00,,0824.4,5.00,0.00,27.1,25.8,00.0,36.1,28.8,12.6,0000.0,0013.68,0005.04,0004.11
2022-03-27 11:49:00,,0824.4,4.99,0.00,27.1,25.9,00.0,36.1,28.8,12.6,0000.0,0013.60,0005.06,0004.10
2022-03-27 11:50:00,,0824.4,5.00,0.00,27.0,25.8,00.0,36.1,28.8,12.6,0000.0,0013.91,0005.15,0004.11
2022-03-27 11:51:00,,0824.4,5.00,0.00,27.0,25.8,00.0,36.1,28.8,12.7,0000.0,0014.66,0005.14,0004.10
2022-03-27 11:52:00,,0824.3,5.00,0.00,27.0,25.8,00.0,36.1,28.8,12.7,0000.0,0015.67,0005.18,0004.10
2022-03-27 11:53:00,,0824.4,5.00,0.00,27.0,25.9,00.0,36.1,28.8,12.6,0000.0,0014.85,0005.20,0004.11
2022-03-27 11:54:00,,0824.4,5.00,0.00,27.0,25.8,00.0,36.1,28.8,12.7,0000.0,0014.30,0005.21,0004.12
2022-03-27 11:55:00,,0824.3,4.99,0.00,27.0,25.8,00.0,36.0,28.8,12.7,0000.0,0015.52,0005.21,0004.11
2022-03-27 11:56:00,,0824.3,5.00,0.00,27.0,25.9,00.0,36.0,28.8,12.6,0000.0,0015.56,0005.19,0004.11
2022-03-27 11:57:00,,0824.4,5.00,0.00,27.0,25.9,00.0,36.0,28.8,12.6,0000.0,0015.00,0005.16,0004.11
2022-03-27 11:58:00,,0824.4,5.00,0.00,27.0,25.8,00.0,36.0,28.7,12.6,0000.0,0014.88,0005.14,0004.12
2022-03-27 11:59:00,,0824.4,5.00,0.00,27.0,25.8,00.0,36.0,28.7,12.6,0000.0,0014.62,0005.10,0004.13
